Other Public Products
Issued by NWS Charleston, SC

Current Version | Previous Version | Text Only | Print | Product List | Glossary Off
Versions: 1 2 3 4 5 6 7 8 9 10 11 12 13 14 15 16 17 18 19 20 21 22 23 24 25 26 27 28 29 30 31 32 33 34 35 36 37 38 39 40 41 42 43 44 45 46 47 48 49 50

195
FPUS82 KCHS 271812
OPUCHS

TEST...KCHS/KSAV Gateway Observations...TEST
National Weather Service Charleston SC
200 PM EDT MON MAR 27 2017

NOTE: "fair" indicates few or no clouds below 12,000 feet with no
significant weather and/or obstructions to visibility.

SCZ050-WAZ558-NCZ071-TXZ119-213-PAZ071-DCZ001-FLZ074-172-MI076-
NYZ176-178-MAZ016-IL014-TNZ027-NJZ106-GAZ044-MD014-271900-

...Gateway Observations for Charleston International...

CITY           SKY/WX    TMP DP  RH WIND       PRES   REMARKS
Chas Airport   PTSUNNY   79  57  46 VRB5      30.10F
6HR MIN TEMP:  61; 6HR MAX TEMP:  80;

Seattle        PTSUNNY   48  42  80 SW12      30.07R
6HR MIN TEMP:  44; 6HR MAX TEMP:  48; 6HR PCP: TRACE;

Charlotte      PTSUNNY   74  58  57 SW6       30.08F
6HR MIN TEMP:  60; 6HR MAX TEMP:  74;

Dallas DFW     PTSUNNY   65  53  65 N9        29.93S
6HR MIN TEMP:  59; 6HR MAX TEMP:  65;

Dallas Love    PTSUNNY   65  53  65 N7G16     29.94F
6HR MIN TEMP:  59; 6HR MAX TEMP:  65;

Philladelphia  CLOUDY    54  50  86 SW9       30.04F
6HR MIN TEMP:  44; 6HR MAX TEMP:  54; 6HR PCP:  0.09;

Wash National  MOSUNNY   64  56  75 S8        30.02F
6HR MIN TEMP:  48; 6HR MAX TEMP:  64; 6HR PCP: TRACE;

Baltimore      PTSUNNY   62  55  77 VRB3      30.02F
6HR MIN TEMP:  45; 6HR MAX TEMP:  62; 6HR PCP: TRACE;

Miami          PTSUNNY   81  62  52 E9G17     30.07F
6HR MIN TEMP:  69; 6HR MAX TEMP:  82;

Detroit        CLOUDY    60  50  69 SW8       29.92F
6HR MIN TEMP:  52; 6HR MAX TEMP:  60;

Newark         CLOUDY    50  46  86 CALM      30.04S
6HR MIN TEMP:  41; 6HR MAX TEMP:  50; 6HR PCP:  0.19;

Laguardia      CLOUDY    46  42  86 NE7       30.04F
6HR MIN TEMP:  40; 6HR MAX TEMP:  46; 6HR PCP:  0.20;

J F K          CLOUDY    51  47  86 W6        30.05F
6HR MIN TEMP:  43; 6HR MAX TEMP:  51; 6HR PCP:  0.17;

Boston Logan   RAIN      42  41  96 N7        30.06F FOG
6HR MIN TEMP:  38; 6HR MAX TEMP:  42; 6HR PCP:  0.40;

Ft. Lauderdale MOSUNNY   80  61  52 NE12      30.06F
6HR MIN TEMP:  68; 6HR MAX TEMP:  81; 6HR PCP: TRACE;

Chicago O`Hare CLOUDY    48  44  86 E7        29.93F FOG
6HR MIN TEMP:  47; 6HR MAX TEMP:  49; 6HR PCP: TRACE;

Chicago Midway CLOUDY    47  44  90 E8        29.95F
6HR MIN TEMP:  46; 6HR MAX TEMP:  50; 6HR PCP: TRACE;

Houston Bush   PTSUNNY   83  66  56 S7        29.90F
6HR MIN TEMP:  71; 6HR MAX TEMP:  83;

Houston Hobby  MOSUNNY   82  67  60 S15       29.90F
6HR MIN TEMP:  71; 6HR MAX TEMP:  83;

Nashville      CLOUDY    75  59  57 SW10G22   29.94F
6HR MIN TEMP:  64; 6HR MAX TEMP:  76;

Atlanta        LGT RAIN  73  58  59 W10       30.06F
6HR MIN TEMP:  60; 6HR MAX TEMP:  74; 6HR PCP: TRACE;


$$

GAZ044-118-TXZ119-213-NCZ071-DCZ001-MDZ014-506-PAZ021-071-NJZ106-
NYZ176-178-MAZ106-OHZ011-021-055-MIZ076-KYZ091-ILZ014-INZ047-
MNZ060-ONZ431-271900-

...Gateway Observations for Savannah International...

CITY           SKY/WX    TMP DP  RH WIND       PRES   REMARKS
Savannah Arpt  PTSUNNY   80  57  45 SE6       30.09F
6HR MIN TEMP:  61; 6HR MAX TEMP:  82;

Atlanta        LGT RAIN  73  58  59 W10       30.06F
6HR MIN TEMP:  60; 6HR MAX TEMP:  74; 6HR PCP: TRACE;

Charlotte      PTSUNNY   74  58  57 SW6       30.08F
6HR MIN TEMP:  60; 6HR MAX TEMP:  74;

Dallas DFW     PTSUNNY   65  53  65 N9        29.93S
6HR MIN TEMP:  59; 6HR MAX TEMP:  65;

Houston Bush   PTSUNNY   83  66  56 S7        29.90F
6HR MIN TEMP:  71; 6HR MAX TEMP:  83;

Wash National  MOSUNNY   64  56  75 S8        30.02F
6HR MIN TEMP:  48; 6HR MAX TEMP:  64; 6HR PCP: TRACE;

Wash Dulles    MOSUNNY   67  55  65 S7        30.01F
6HR MIN TEMP:  47; 6HR MAX TEMP:  68;

Baltimore      PTSUNNY   62  55  77 VRB3      30.02F
6HR MIN TEMP:  45; 6HR MAX TEMP:  62; 6HR PCP: TRACE;

Philadelphia   CLOUDY    54  50  86 SW9       30.04F
6HR MIN TEMP:  44; 6HR MAX TEMP:  54; 6HR PCP:  0.09;

Newark         CLOUDY    50  46  86 CALM      30.04S
6HR MIN TEMP:  41; 6HR MAX TEMP:  50; 6HR PCP:  0.19;

Laguardia      CLOUDY    46  42  86 NE7       30.04F
6HR MIN TEMP:  40; 6HR MAX TEMP:  46; 6HR PCP:  0.20;

J F K          CLOUDY    51  47  86 W6        30.05F
6HR MIN TEMP:  43; 6HR MAX TEMP:  51; 6HR PCP:  0.17;

Boston         RAIN      42  41  96 N7        30.06F FOG
6HR MIN TEMP:  38; 6HR MAX TEMP:  42; 6HR PCP:  0.40;

Pittsburg      PTSUNNY   63  50  62 W12       29.97F
6HR MIN TEMP:  55; 6HR MAX TEMP:  63;

Akron          CLOUDY    60  47  61 SW14      29.96F
6HR MIN TEMP:  53; 6HR MAX TEMP:  61;

Cleveland      CLOUDY    60  49  66 SW15      29.97F
6HR MIN TEMP:  55; 6HR MAX TEMP:  60; 6HR PCP: TRACE;

Cincinnati     CLOUDY    62  52  69 SE3       29.95F
6HR MIN TEMP:  45; 6HR MAX TEMP:  62; 6HR PCP: TRACE;

Columbus       PTSUNNY   62  51  66 SW8       29.97F
Detroit        CLOUDY    60  50  69 SW8       29.92F
6HR MIN TEMP:  52; 6HR MAX TEMP:  60;

Chicago O`Hare CLOUDY    48  44  86 E7        29.93F FOG
6HR MIN TEMP:  47; 6HR MAX TEMP:  49; 6HR PCP: TRACE;

Minneapolis    MOSUNNY   53  34  48 N6        29.97F
6HR MIN TEMP:  38; 6HR MAX TEMP:  53;

Indianapolis   CLOUDY    61  50  67 SE10      29.89F
6HR MIN TEMP:  47; 6HR MAX TEMP:  64;

Toronto Canada PTSUNNY   57  52  82 SE6       29.86F

$$




USA.gov is the U.S. government's official web portal to all federal, state and local government web resources and services.